[[{"header":{"parameterUnit":"m.s-1","parameterCategory":2,"la1":30.2991,"la2":30.254,"lo1":-89.0895,"lo2":-89.0444,"dy":0.0017,"dx":0.0017,"nx":28,"ny":28,"refTime":"2025-11-13T09:00:00:Z","depth":"0","parameterNumber":2,"parameterNumberName":"U-component_of_CURRENTS"},"data":[0,0,0,0,0,0,0,0,0,0,0,0,0,0,0,0,0,0,0,0,0,0,0,0,0,0,0,0,0,0,0,0,0,0,0,0,0,0,0,0,0,0,0,0,0,0,0,0,0,0,0,0,0,0,0,0,0,0,0.2611,0.2611,0,0.2618,0.2618,0.2618,0.2576,0.2575,0.2573,0.2572,0.257,0.2571,0.2572,0,0,0,0,0,0,0,0,0,0,0,0,0,0.2528,0.2529,0.2611,0.2611,0.2611,0.2618,0.2618,0.2618,0.2576,0.2575,0.2573,0.2572,0.2569,0.257,0.2572,0,0,0,0,0,0,0,0,0,0,0,0,0,0.2552,0.253,0.2611,0.2591,0.2589,0.2618,0.2618,0.2618,0.2576,0.2575,0.2573,0.2571,0.2569,0.257,0.2572,0.2618,0,0,0.2577,0.2577,0,0,0,0,0,0,0,0,0.2551,0.2555,0.2594,0.2592,0.259,0.2594,0.2588,0.2618,0.2577,0.2581,0.2572,0.257,0.2578,0.2579,0.2584,0.2618,0.2618,0.2577,0.2578,0.2578,0.2579,0,0,0,0,0,0,0,0.2549,0.2555,0.2614,0.2594,0.2592,0.257,0.2572,0.2593,0.259,0.2581,0.2578,0.2579,0.2577,0.2583,0.2584,0.2617,0.2577,0.2578,0.2579,0.258,0.2708,0.2711,0,0,0,0,0,0,0.2553,0.2554,0.2613,0.2614,0.2566,0.2573,0.2575,0.2595,0.2589,0.2587,0.2581,0.2577,0.2581,0.2582,0.2584,0.264,0.2578,0.258,0.2581,0.2706,0.2709,0.2711,0,0,0,0,0,0,0.2551,0.2559,0.2613,0.2582,0.2588,0.2577,0.2599,0.2596,0.2599,0.259,0.2586,0.2586,0.258,0.2581,0.2617,0.2639,0.2581,0.2582,0.2703,0.2707,0.271,0.2751,0,0,0,0,0,0,0.2549,0.2559,0.2575,0.2584,0.259,0.2636,0.2601,0.2597,0.2603,0.2598,0.2594,0.2592,0.2579,0.2615,0.2619,0.264,0.2583,0.27,0.2705,0.2709,0.2747,0.2756,0.2764,0,0,0,0,0,0.2547,0.2576,0.2577,0.2583,0.2613,0.2637,0.2639,0.2623,0.2605,0.2617,0.2621,0.2591,0.2647,0.2619,0.2623,0.2645,0.2697,0.2703,0.2709,0.2743,0.2754,0.2764,0,0,0,0,0,0,0.2553,0.2575,0.2575,0.2612,0.2626,0.263,0.2638,0.2633,0.2646,0.2639,0.2626,0.2626,0.2664,0.2663,0.2632,0.27,0.2667,0.2674,0.2692,0.2703,0.2711,0.268,0.2585,0,0,0,0,0,0.2565,0.2588,0.2606,0.2635,0.2643,0.2644,0.2651,0.2645,0.2656,0.2658,0.2656,0.2667,0.2694,0.2702,0.2721,0.2762,0.2769,0.2782,0.279,0.2797,0.2778,0.2833,0.2843,0.273,0.273,0.273,0,0,0.2573,0.2589,0.2602,0.2637,0.2643,0.266,0.2644,0.2661,0.2671,0.266,0.2676,0.2696,0.2715,0.2756,0.2773,0.2753,0.284,0.2804,0.2809,0.2786,0.2839,0.285,0.286,0.2733,0.2733,0.2732,0,0,0.2595,0.2621,0.2641,0.2655,0.2672,0.2677,0.2685,0.2697,0.2698,0.2731,0.2728,0.2763,0.2794,0.2811,0.2825,0.2898,0.2885,0.2911,0.2922,0.2976,0.2985,0.2993,0.3036,0.3047,0.2912,0.2912,0.2912,0,0.2605,0.2633,0.2651,0.267,0.2678,0.2686,0.2702,0.2717,0.2737,0.2747,0.2739,0.2805,0.2817,0.2873,0.2893,0.2913,0.2938,0.2877,0.2984,0.2992,0.2999,0.3042,0.3053,0.2915,0.2914,0.2914,0.2914,0,0.2633,0.2655,0.2669,0.2693,0.271,0.2728,0.2746,0.2765,0.2769,0.278,0.2831,0.2863,0.2895,0.292,0.2923,0.2989,0.2991,0.299,0.2949,0.3013,0.3054,0.3066,0.2918,0.2917,0.2917,0.2916,0,0,0.2649,0.2682,0.2683,0.2686,0.272,0.2729,0.2764,0.2793,0.2805,0.284,0.2866,0.2927,0.2937,0.2955,0.298,0.3021,0.3104,0.3023,0.3024,0.3048,0.3223,0.3252,0.3267,0.3125,0.3126,0.3128,0.3238,0,0.266,0.2683,0.2704,0.272,0.2729,0.2753,0.2779,0.2806,0.2832,0.2863,0.291,0.2943,0.2956,0.2974,0.3026,0.308,0.3133,0.3073,0.3172,0.3174,0.3178,0.3281,0.3317,0.342,0.3249,0.3251,0.3253,0,0.2668,0.268,0.2696,0.2715,0.2722,0.2736,0.2765,0.2791,0.2848,0.287,0.2921,0.295,0.3023,0.3019,0.3147,0.3111,0.3166,0.3207,0.3212,0.3223,0.3224,0.3328,0.3447,0.3322,0.327,0.3268,0.3267,0,0.2636,0.2668,0.2673,0.2681,0.2713,0.2723,0.2741,0.2788,0.2806,0.2869,0.2889,0.298,0.3017,0.311,0.3192,0.3179,0.3323,0.332,0.3401,0.3403,0.3442,0.3444,0.3432,0.3411,0.3411,0.341,0.341,0,0.2627,0.2626,0.2653,0.2651,0.2653,0.2689,0.27,0.2734,0.2787,0.281,0.2883,0.2922,0.3039,0.313,0.3211,0.3348,0.335,0.3419,0.3444,0.3461,0.3464,0.3361,0.3253,0.3415,0.3414,0.3413,0.3412,0,0.258,0.2605,0.2602,0.2627,0.2635,0.2628,0.266,0.2672,0.2728,0.2765,0.2782,0.2892,0.3024,0.3144,0.3294,0.3369,0.3422,0.3531,0.3537,0.3561,0.3528,0.3422,0.3315,0.3259,0.3661,0.3662,0.3664,0,0.255,0.2547,0.2562,0.2553,0.256,0.2564,0.2571,0.2631,0.265,0.2744,0.2761,0.2893,0.2996,0.324,0.3417,0.3601,0.3457,0.3704,0.3689,0.3543,0.3444,0.3264,0.321,0.3767,0.3769,0.3771,0.3772,0,0.2482,0.2493,0.2491,0.2477,0.2476,0.2479,0.2498,0.2515,0.259,0.2643,0.2729,0.2821,0.3084,0.329,0.3529,0.3666,0.3556,0.3744,0.3604,0.3535,0.3327,0.3281,0.3653,0.3787,0.3786,0.3785,0.3784,0.3783,0.2419,0.2401,0.2402,0.2383,0.2387,0.2392,0.2385,0.2435,0.2482,0.2555,0.267,0.2808,0.3125,0.3498,0.3612,0.3795,0.3649,0.3767,0.3658,0.3494,0.3405,0.3798,0.3946,0.3945,0.3945,0.3944,0.3944,0,0.2324,0.2318,0.2303,0.2289,0.2269,0.2301,0.2329,0.2332,0.238,0.2491,0.2581,0.2888,0.3171,0.3445,0.3744,0.3699,0.3629,0.3604,0.3358,0.332,0.3721,0.3692,0.3777,0.3777,0.3777,0.3777,0.3777,0.3778,0.2268,0.2228,0.2229,0.2173,0.2167,0.214,0.215,0.2188,0.2262,0.2379,0.2515,0.2651,0.2988,0.3298,0.3458,0.3485,0.3221,0.3143,0.3007,0.3285,0.329,0.3295,0.3244,0.3234,0.3233,0.2622,0.2617,0.2613]},{"header":{"parameterUnit":"m.s-1","parameterCategory":2,"la1":30.2991,"la2":30.254,"lo1":-89.0895,"lo2":-89.0444,"dy":0.0017,"dx":0.0017,"nx":28,"ny":28,"refTime":"2025-11-13T09:00:00:Z","depth":"0","parameterNumber":3,"parameterNumberName":"V-component_of_CURRENTS"},"data":[0,0,0,0,0,0,0,0,0,0,0,0,0,0,0,0,0,0,0,0,0,0,0,0,0,0,0,0,0,0,0,0,0,0,0,0,0,0,0,0,0,0,0,0,0,0,0,0,0,0,0,0,0,0,0,0,0,0,-0.0363,-0.0364,0,-0.037,-0.037,-0.037,-0.0384,-0.0385,-0.0385,-0.0385,-0.0411,-0.0411,-0.0412,0,0,0,0,0,0,0,0,0,0,0,0,0,-0.0342,-0.0342,-0.0363,-0.0364,-0.0364,-0.037,-0.037,-0.037,-0.0384,-0.0385,-0.0385,-0.0386,-0.0411,-0.0411,-0.0412,0,0,0,0,0,0,0,0,0,0,0,0,0,-0.0349,-0.0342,-0.0363,-0.0372,-0.0373,-0.037,-0.037,-0.037,-0.0384,-0.0385,-0.0385,-0.0386,-0.0411,-0.0411,-0.0412,-0.0403,0,0,-0.0413,-0.0413,0,0,0,0,0,0,0,0,-0.0349,-0.035,-0.0371,-0.0372,-0.0373,-0.0378,-0.0372,-0.0382,-0.0384,-0.0379,-0.0386,-0.0386,-0.0402,-0.0403,-0.0401,-0.0404,-0.0405,-0.0413,-0.0414,-0.0414,-0.0414,0,0,0,0,0,0,0,-0.0348,-0.0349,-0.0365,-0.0371,-0.0372,-0.0369,-0.0371,-0.0374,-0.0387,-0.0379,-0.0381,-0.0383,-0.0403,-0.0401,-0.0402,-0.0406,-0.0413,-0.0414,-0.0414,-0.0414,-0.0425,-0.0425,0,0,0,0,0,0,-0.035,-0.0349,-0.0365,-0.0365,-0.0363,-0.0369,-0.0371,-0.0375,-0.0386,-0.0389,-0.0383,-0.0384,-0.04,-0.0402,-0.0403,-0.0391,-0.0414,-0.0414,-0.0414,-0.0425,-0.0425,-0.0425,0,0,0,0,0,0,-0.035,-0.0351,-0.0364,-0.0358,-0.036,-0.0369,-0.0373,-0.0375,-0.0376,-0.0389,-0.0391,-0.0383,-0.04,-0.0402,-0.0408,-0.0392,-0.0414,-0.0415,-0.0425,-0.0425,-0.0425,-0.0369,0,0,0,0,0,0,-0.0349,-0.0351,-0.035,-0.0358,-0.036,-0.036,-0.0373,-0.0374,-0.0377,-0.0378,-0.0389,-0.0392,-0.0401,-0.0407,-0.0408,-0.0394,-0.0415,-0.0425,-0.0425,-0.0425,-0.0371,-0.0367,-0.0364,0,0,0,0,0,-0.0348,-0.0343,-0.035,-0.0352,-0.036,-0.036,-0.036,-0.0368,-0.0376,-0.0372,-0.0383,-0.0392,-0.0408,-0.0407,-0.0409,-0.0394,-0.0425,-0.0425,-0.0425,-0.0372,-0.0368,-0.0364,0,0,0,0,0,0,-0.0328,-0.0344,-0.0352,-0.0351,-0.0355,-0.0362,-0.0358,-0.0366,-0.037,-0.0374,-0.0388,-0.0392,-0.0392,-0.0405,-0.0403,-0.04,-0.0419,-0.0419,-0.0379,-0.0375,-0.0371,-0.0358,-0.0416,0,0,0,0,0,-0.0324,-0.0327,-0.034,-0.0337,-0.034,-0.0349,-0.035,-0.0357,-0.0364,-0.0366,-0.0375,-0.0387,-0.0392,-0.0393,-0.0403,-0.0396,-0.0411,-0.039,-0.0387,-0.0384,-0.0376,-0.0385,-0.0381,-0.0425,-0.0425,-0.0425,0,0,-0.0316,-0.0324,-0.0326,-0.0334,-0.0338,-0.0332,-0.0351,-0.035,-0.0342,-0.0368,-0.036,-0.0375,-0.039,-0.0384,-0.0385,-0.0391,-0.0381,-0.0384,-0.038,-0.0375,-0.0385,-0.038,-0.0376,-0.0425,-0.0425,-0.0425,0,0,-0.0299,-0.0308,-0.0307,-0.0307,-0.0315,-0.0318,-0.0318,-0.0327,-0.0327,-0.0324,-0.0341,-0.0346,-0.0356,-0.0356,-0.036,-0.0343,-0.0365,-0.0353,-0.0317,-0.0325,-0.0322,-0.0318,-0.0336,-0.0335,-0.0347,-0.0347,-0.0347,0,-0.029,-0.0289,-0.0303,-0.0299,-0.0294,-0.0311,-0.0301,-0.0299,-0.0307,-0.0301,-0.0318,-0.0326,-0.0338,-0.0324,-0.032,-0.0332,-0.0348,-0.0327,-0.0319,-0.0316,-0.0314,-0.0333,-0.0332,-0.0344,-0.0344,-0.0345,-0.0345,0,-0.0275,-0.027,-0.0266,-0.0267,-0.0261,-0.0255,-0.0257,-0.0251,-0.0257,-0.0258,-0.0254,-0.0271,-0.0276,-0.028,-0.0292,-0.0279,-0.03,-0.0315,-0.0324,-0.0305,-0.0328,-0.0328,-0.034,-0.0341,-0.0342,-0.0343,0,0,-0.0268,-0.0259,-0.0257,-0.0247,-0.0244,-0.0237,-0.0218,-0.0205,-0.0188,-0.02,-0.0181,-0.0191,-0.0207,-0.0213,-0.0231,-0.0233,-0.0231,-0.0263,-0.0264,-0.0271,-0.0259,-0.0267,-0.0269,-0.0244,-0.0244,-0.0244,-0.0282,0,-0.0254,-0.0236,-0.0234,-0.0206,-0.0195,-0.0192,-0.0169,-0.0158,-0.0153,-0.0138,-0.0153,-0.015,-0.018,-0.0183,-0.0189,-0.0218,-0.0228,-0.022,-0.0284,-0.0286,-0.0288,-0.0268,-0.0187,-0.0214,-0.0282,-0.0283,-0.0283,0,-0.0245,-0.0231,-0.0206,-0.0173,-0.0167,-0.015,-0.0115,-0.0097,-0.0078,-0.0077,-0.0077,-0.0094,-0.0097,-0.0131,-0.0168,-0.0163,-0.0207,-0.0234,-0.0236,-0.0261,-0.0295,-0.0244,-0.0212,-0.0267,-0.0283,-0.0283,-0.0283,0,-0.0239,-0.021,-0.0187,-0.0178,-0.0145,-0.0126,-0.0107,-0.0079,-0.0056,-0.0041,-0.0028,-0.0043,-0.005,-0.0096,-0.0157,-0.0164,-0.0203,-0.0223,-0.0274,-0.0276,-0.0228,-0.0226,-0.0245,-0.0255,-0.0255,-0.0255,-0.0254,0,-0.0228,-0.0208,-0.0181,-0.0168,-0.0127,-0.0111,-0.0067,-0.0049,-0.0018,0.0016,-0.0001,0.002,-0.0042,-0.0074,-0.0137,-0.0202,-0.0194,-0.0261,-0.028,-0.0209,-0.0204,-0.0269,-0.0345,-0.0256,-0.0256,-0.0255,-0.0255,0,-0.0225,-0.0212,-0.018,-0.0141,-0.0125,-0.0096,-0.0044,-0.0008,0.0012,0.0056,0.006,0.0065,0.0037,-0.0033,-0.0104,-0.0174,-0.0277,-0.0271,-0.0188,-0.0196,-0.0293,-0.037,-0.0431,-0.0512,-0.0324,-0.0325,-0.0325,0,-0.0222,-0.0206,-0.0161,-0.0132,-0.0113,-0.0069,-0.003,0.0001,0.0039,0.0088,0.0113,0.0106,0.0127,0.0022,-0.0084,-0.019,-0.0283,-0.0223,-0.022,-0.028,-0.038,-0.0413,-0.0481,-0.0138,-0.0137,-0.0136,-0.0135,0,-0.0204,-0.019,-0.016,-0.0106,-0.0063,-0.0012,0.0039,0.0073,0.0116,0.0165,0.0222,0.0247,0.017,0.0145,-0.0005,-0.0098,-0.0264,-0.0208,-0.0276,-0.0242,-0.0271,-0.0363,-0.015,-0.0126,-0.0127,-0.0128,-0.0128,-0.0129,-0.0185,-0.0155,-0.0112,-0.0061,-0.0012,0.0054,0.0112,0.0172,0.0249,0.0361,0.0338,0.0456,0.0396,0.0235,0.004,-0.016,-0.023,-0.0189,-0.028,-0.0309,-0.0374,-0.0155,-0.0152,-0.0153,-0.0154,-0.0155,-0.0156,0,-0.0152,-0.0112,-0.0063,0.0008,0.0071,0.0086,0.0174,0.0253,0.0367,0.0495,0.0576,0.0724,0.0605,0.0413,0.0149,-0.0121,-0.026,-0.027,-0.0277,-0.0352,-0.0132,-0.0109,-0.0088,-0.0087,-0.0087,-0.0087,-0.0087,-0.0087,-0.0123,-0.007,-0.0042,0.0071,0.0126,0.0232,0.0292,0.0413,0.0535,0.0784,0.0966,0.1077,0.114,0.0542,0.0083,-0.0126,-0.0375,-0.0409,-0.0591,-0.0398,-0.0395,-0.0393,-0.0385,-0.0421,-0.0422,-0.0717,-0.072,-0.0723]}],[{"header":{"parameterUnit":"m.s-1","parameterCategory":2,"la1":30.2991,"la2":30.254,"lo1":-89.0895,"lo2":-89.0444,"dy":0.0017,"dx":0.0017,"nx":28,"ny":28,"refTime":"2025-11-13T09:00:00:Z","depth":"2","parameterNumber":2,"parameterNumberName":"U-component_of_CURRENTS"},"data":[0,0,0,0,0,0,0,0,0,0,0,0,0,0,0,0,0,0,0,0,0,0,0,0,0,0,0,0,0,0,0,0,0,0,0,0,0,0,0,0,0,0,0,0,0,0,0,0,0,0,0,0,0,0,0,0,0,0,0.1051,0.1051,0,0.1068,0.1068,0.1068,0.1047,0.1046,0.1046,0.1045,0.1063,0.1064,0.1066,0,0,0,0,0,0,0,0,0,0,0,0,0,0.1011,0.1011,0.1051,0.1051,0.1052,0.1068,0.1068,0.1068,0.1047,0.1046,0.1045,0.1045,0.1063,0.1064,0.1066,0,0,0,0,0,0,0,0,0,0,0,0,0,0.1027,0.1011,0.1051,0.1044,0.1044,0.1068,0.1068,0.1068,0.1047,0.1046,0.1045,0.1044,0.1063,0.1064,0.1066,0.1096,0,0,0.1071,0.1072,0,0,0,0,0,0,0,0,0.1026,0.1028,0.1045,0.1045,0.1044,0.1056,0.1061,0.1078,0.1047,0.1044,0.1045,0.1044,0.1063,0.1064,0.1068,0.1097,0.1098,0.1071,0.1072,0.1073,0.1073,0,0,0,0,0,0,0,0.1025,0.1027,0.1056,0.1045,0.1045,0.1044,0.1045,0.1064,0.1058,0.1045,0.1043,0.1048,0.1062,0.1066,0.1068,0.1098,0.1071,0.1073,0.1074,0.1074,0.1186,0.1187,0,0,0,0,0,0,0.1026,0.1026,0.1056,0.1057,0.1034,0.1045,0.1046,0.1052,0.1058,0.1058,0.1049,0.1047,0.1064,0.1066,0.1069,0.1135,0.1073,0.1074,0.1075,0.1184,0.1186,0.1188,0,0,0,0,0,0,0.1025,0.1029,0.1055,0.1043,0.1046,0.1047,0.1054,0.1053,0.1061,0.1061,0.1061,0.1058,0.1063,0.1066,0.1102,0.1134,0.1075,0.1077,0.1181,0.1184,0.1187,0.1249,0,0,0,0,0,0,0.1024,0.1028,0.1039,0.1043,0.1047,0.1078,0.1055,0.1054,0.1065,0.1063,0.1069,0.1069,0.1062,0.11,0.1104,0.1136,0.1078,0.1179,0.1183,0.1186,0.1244,0.1253,0.1261,0,0,0,0,0,0.1022,0.104,0.1039,0.1043,0.106,0.1079,0.1081,0.1077,0.1067,0.1079,0.1089,0.1069,0.1126,0.1104,0.1108,0.114,0.1177,0.1182,0.1186,0.124,0.1252,0.1261,0,0,0,0,0,0,0.103,0.104,0.1039,0.1059,0.1072,0.1076,0.109,0.1086,0.1103,0.1103,0.1096,0.1099,0.1143,0.1138,0.1113,0.1184,0.1148,0.1154,0.1188,0.1199,0.1207,0.1213,0.1079,0,0,0,0,0,0.1037,0.1052,0.1061,0.108,0.1088,0.1092,0.1101,0.1099,0.1111,0.1116,0.1122,0.1137,0.1166,0.1178,0.1197,0.1238,0.126,0.1262,0.127,0.1277,0.1287,0.1351,0.1366,0.1203,0.1203,0.1203,0,0,0.1045,0.1054,0.1063,0.1083,0.1092,0.1114,0.1095,0.1114,0.1136,0.1119,0.1155,0.1169,0.1185,0.123,0.1249,0.1228,0.1342,0.1283,0.1289,0.1294,0.1357,0.1373,0.1388,0.1206,0.1205,0.1205,0,0,0.1068,0.1079,0.1097,0.1113,0.1132,0.1139,0.1147,0.116,0.1169,0.1207,0.1207,0.1242,0.1273,0.1296,0.131,0.1381,0.1386,0.1386,0.1432,0.1495,0.1509,0.1521,0.1592,0.161,0.1388,0.1388,0.1388,0,0.1078,0.1099,0.1107,0.1131,0.1148,0.1152,0.1177,0.1196,0.122,0.1245,0.1226,0.1304,0.1307,0.1379,0.1399,0.14,0.144,0.1389,0.1506,0.1519,0.1531,0.16,0.1619,0.1391,0.1391,0.139,0.139,0,0.1109,0.1131,0.1147,0.1177,0.12,0.1223,0.1248,0.1275,0.1286,0.1309,0.1377,0.1393,0.144,0.1448,0.1443,0.1533,0.1539,0.1511,0.1478,0.1551,0.1619,0.1638,0.1396,0.1395,0.1394,0.1393,0,0,0.1115,0.1158,0.1164,0.1182,0.1224,0.1243,0.1294,0.1343,0.1387,0.1418,0.1484,0.1529,0.1544,0.1563,0.1568,0.1614,0.1729,0.16,0.1602,0.1667,0.1889,0.1834,0.1849,0.1725,0.1728,0.1731,0.1911,0,0.1136,0.1177,0.1199,0.1247,0.127,0.1301,0.135,0.14,0.1443,0.1512,0.1552,0.1615,0.1588,0.1618,0.1667,0.1714,0.1779,0.1683,0.1811,0.1816,0.1755,0.1869,0.1554,0.1683,0.193,0.1933,0.1935,0,0.1156,0.1181,0.1222,0.1278,0.1293,0.1328,0.1407,0.1455,0.1555,0.1594,0.167,0.1705,0.1797,0.1748,0.1887,0.1832,0.1874,0.19,0.1907,0.1845,0.1795,0.1646,0.1708,0.1967,0.1964,0.1962,0.196,0,0.1143,0.1198,0.1228,0.1247,0.1313,0.1346,0.139,0.1482,0.1536,0.1657,0.1713,0.1821,0.1878,0.1955,0.2012,0.1967,0.2159,0.2099,0.2098,0.2095,0.1845,0.1814,0.2208,0.2208,0.2208,0.2207,0.2207,0,0.1151,0.1178,0.1223,0.1242,0.1293,0.1345,0.142,0.1482,0.1589,0.167,0.1757,0.1838,0.193,0.2038,0.208,0.2166,0.2225,0.2142,0.2148,0.186,0.183,0.2073,0.2055,0.2214,0.2212,0.2211,0.221,0,0.1134,0.1163,0.1201,0.1264,0.1286,0.1325,0.1419,0.1475,0.1582,0.1693,0.1737,0.1884,0.2036,0.2134,0.2272,0.2245,0.233,0.2341,0.2007,0.1969,0.221,0.2194,0.237,0.2369,0.2369,0.2369,0.2369,0,0.1129,0.1144,0.1203,0.1219,0.1247,0.1309,0.1352,0.146,0.1522,0.1713,0.1763,0.1949,0.2051,0.225,0.2186,0.2265,0.2405,0.2092,0.1934,0.2244,0.2233,0.2216,0.22,0.164,0.1634,0.1629,0.1625,0,0.1115,0.1134,0.1159,0.119,0.1226,0.1274,0.1345,0.1394,0.1532,0.1631,0.1779,0.1879,0.1986,0.1916,0.2006,0.2002,0.2048,0.1995,0.2426,0.1644,0.157,0.1554,0.1559,0.1581,0.1585,0.1589,0.1591,0.1593,0.1097,0.1105,0.1127,0.1157,0.1188,0.1224,0.1256,0.1332,0.1424,0.1527,0.1669,0.1705,0.1669,0.1605,0.164,0.165,0.176,0.1715,0.1724,0.174,0.1619,0.1548,0.1534,0.1538,0.1542,0.1545,0.1548,0,0.1065,0.1074,0.1091,0.1119,0.1126,0.1166,0.1234,0.1247,0.1318,0.1362,0.1441,0.1232,0.1189,0.1282,0.113,0.115,0.1071,0.1232,0.109,0.113,0.1166,0.1013,0.077,0.077,0.0769,0.0769,0,0,0.1046,0.1043,0.1051,0.1046,0.1063,0.1068,0.1095,0.1114,0.1121,0.1069,0.1009,0.1007,0.107,0.0828,0.0827,0.0812,0.0977,0.0782,0.1367,0.1226,0.1263,0.1372,0.1172,0,0,0,0,0]},{"header":{"parameterUnit":"m.s-1","parameterCategory":2,"la1":30.2991,"la2":30.254,"lo1":-89.0895,"lo2":-89.0444,"dy":0.0017,"dx":0.0017,"nx":28,"ny":28,"refTime":"2025-11-13T09:00:00:Z","depth":"2","parameterNumber":3,"parameterNumberName":"V-component_of_CURRENTS"},"data":[0,0,0,0,0,0,0,0,0,0,0,0,0,0,0,0,0,0,0,0,0,0,0,0,0,0,0,0,0,0,0,0,0,0,0,0,0,0,0,0,0,0,0,0,0,0,0,0,0,0,0,0,0,0,0,0,0,0,0.0234,0.0234,0,0.0189,0.0188,0.0188,0.0134,0.0133,0.0132,0.0131,0.0038,0.0036,0.0035,0,0,0,0,0,0,0,0,0,0,0,0,0,0.0269,0.0269,0.0235,0.0234,0.0233,0.0189,0.0188,0.0188,0.0134,0.0133,0.0132,0.0131,0.0039,0.0037,0.0035,0,0,0,0,0,0,0,0,0,0,0,0,0,0.0242,0.0269,0.0235,0.0201,0.0197,0.0189,0.0188,0.0188,0.0134,0.0133,0.0132,0.013,0.0039,0.0037,0.0034,0.0046,0,0,0.0027,0.0026,0,0,0,0,0,0,0,0,0.0244,0.0241,0.0206,0.0203,0.0199,0.0165,0.0166,0.0138,0.0135,0.0159,0.0131,0.013,0.0077,0.0071,0.0067,0.0041,0.0037,0.0026,0.0025,0.0024,0.0023,0,0,0,0,0,0,0,0.0246,0.0243,0.0217,0.0206,0.0201,0.0185,0.018,0.0161,0.0125,0.0157,0.0152,0.0147,0.0074,0.007,0.0064,0.0036,0.0027,0.0024,0.0023,0.0022,-0.0038,-0.0038,0,0,0,0,0,0,0.0252,0.0245,0.0218,0.0216,0.0218,0.0186,0.018,0.0178,0.0126,0.0118,0.0148,0.0144,0.0075,0.0067,0.0061,0.0039,0.0024,0.0022,0.002,-0.0038,-0.0038,-0.0038,0,0,0,0,0,0,0.0253,0.025,0.022,0.0228,0.0223,0.0187,0.0185,0.0178,0.0161,0.012,0.011,0.0136,0.0073,0.0064,0.0035,0.0036,0.002,0.0018,-0.0038,-0.0038,-0.0038,0.0015,0,0,0,0,0,0,0.0254,0.0251,0.0251,0.0229,0.0223,0.0216,0.0185,0.0178,0.016,0.0154,0.0108,0.0098,0.0071,0.0039,0.0033,0.0032,0.0016,-0.0038,-0.0038,-0.0038,0.0014,0.0017,0.002,0,0,0,0,0,0.0256,0.0265,0.0252,0.0248,0.0224,0.0216,0.0212,0.0182,0.0161,0.016,0.0124,0.0099,0.0033,0.0038,0.003,0.0028,-0.0038,-0.0038,-0.0038,0.0012,0.0016,0.002,0,0,0,0,0,0,0.0283,0.026,0.0244,0.0246,0.0231,0.0207,0.0204,0.0182,0.0155,0.0143,0.0103,0.0091,0.0065,0.004,0.0046,0.0009,-0.0008,-0.001,0.0033,0.0036,0.0039,0.0062,0.0014,0,0,0,0,0,0.0289,0.0288,0.0264,0.0266,0.0259,0.0231,0.0222,0.0201,0.0174,0.016,0.0128,0.0091,0.0062,0.0043,0.0016,0.0001,-0.0018,-0.0008,-0.0005,-0.0002,0.0011,-0.0026,-0.0025,-0.0039,-0.0039,-0.0039,0,0,0.0302,0.0288,0.0288,0.0272,0.0256,0.0255,0.0222,0.021,0.0204,0.0155,0.0136,0.0101,0.006,0.004,0.0025,0.0017,-0.0006,-0.0002,0.0001,0.0012,-0.0026,-0.0025,-0.0023,-0.0039,-0.0039,-0.0039,0,0,0.033,0.0313,0.0321,0.031,0.0287,0.027,0.0267,0.0239,0.022,0.0201,0.016,0.0129,0.0088,0.006,0.0039,0.0044,0.0012,0.0028,0.0064,0.0027,0.0028,0.0029,0.0019,0.0019,0.003,0.003,0.003,0,0.0343,0.035,0.0323,0.0327,0.0322,0.0279,0.0288,0.0268,0.0233,0.0227,0.0199,0.0141,0.01,0.008,0.0075,0.0052,0.0034,0.0055,0.0033,0.0033,0.0033,0.0022,0.0021,0.0032,0.0032,0.0032,0.0032,0,0.0376,0.0379,0.0384,0.0373,0.0366,0.0367,0.0336,0.0322,0.0291,0.0274,0.0245,0.019,0.0159,0.0134,0.0104,0.0084,0.0074,0.0042,0.0028,0.0038,0.0026,0.0023,0.0036,0.0035,0.0034,0.0034,0,0,0.0412,0.0408,0.0409,0.0415,0.039,0.0391,0.0381,0.037,0.0378,0.0326,0.0334,0.0265,0.0237,0.0213,0.0166,0.013,0.0108,0.009,0.0086,0.009,0.0047,0.0065,0.0064,0.0068,0.0068,0.0068,0.0043,0,0.0445,0.0469,0.0454,0.0476,0.0487,0.0452,0.0456,0.0438,0.0417,0.0415,0.035,0.0337,0.0266,0.0255,0.0205,0.0138,0.0102,0.0119,0.0028,0.0027,0.0049,0.0062,0.0009,-0.0015,0.0041,0.0041,0.004,0,0.0481,0.0492,0.0521,0.0535,0.0537,0.0544,0.0549,0.0549,0.0531,0.0516,0.0483,0.0439,0.0386,0.032,0.0209,0.0223,0.0141,0.0081,0.0078,0.0077,0.0041,-0.002,-0.0022,0.0036,0.0036,0.0037,0.0037,0,0.0521,0.054,0.0566,0.0568,0.0576,0.0585,0.059,0.0584,0.0599,0.0587,0.06,0.0525,0.0497,0.0382,0.0256,0.0229,0.0143,0.0087,0.0028,0.003,-0.004,-0.0044,0.0004,0.0004,0.0004,0.0004,0.0004,0,0.0563,0.0583,0.059,0.0606,0.065,0.0637,0.0683,0.0679,0.069,0.0727,0.0659,0.0672,0.0506,0.0436,0.0302,0.018,0.0174,0.0049,0.0024,-0.0021,-0.0023,-0.0004,-0.0005,0.0003,0.0004,0.0004,0.0004,0,0.0602,0.0603,0.0638,0.0658,0.067,0.0702,0.0742,0.0777,0.0783,0.0828,0.0828,0.0779,0.0702,0.0552,0.0387,0.0254,0.0127,0.0079,0.0058,0.0031,0.0024,0.0026,0.0009,0.0009,0.0009,0.001,0.001,0,0.0624,0.0646,0.0681,0.0707,0.0718,0.0764,0.08,0.082,0.0862,0.09,0.0929,0.0883,0.0875,0.067,0.0411,0.0206,0.018,0.0031,-0.004,0.0047,0.0024,0.0026,0.0028,-0.0114,-0.0115,-0.0116,-0.0116,0,0.0668,0.0675,0.07,0.0757,0.0799,0.0856,0.091,0.0962,0.0995,0.1054,0.1123,0.1133,0.0926,0.0684,0.0401,0.0256,0.0061,0.0014,0.0096,-0.0092,-0.0067,-0.0089,-0.0085,-0.0122,-0.0121,-0.0121,-0.012,-0.012,0.0691,0.0718,0.0749,0.0804,0.0854,0.0935,0.0999,0.1076,0.1175,0.1258,0.1256,0.1195,0.0859,0.0448,0.0261,0.0049,0.0054,-0.0079,-0.0079,-0.0078,-0.0072,-0.0047,-0.0096,-0.0095,-0.0094,-0.0094,-0.0093,0,0.0713,0.0739,0.0795,0.0858,0.0921,0.0942,0.1057,0.1142,0.128,0.1289,0.1355,0.0942,0.0694,0.0392,0.0045,-0.0131,-0.0155,-0.0161,-0.02,-0.0194,-0.0189,-0.0191,-0.0245,-0.0245,-0.0246,-0.0246,0,0,0.0722,0.0765,0.0795,0.0894,0.0943,0.1039,0.111,0.1258,0.1285,0.1292,0.1155,0.1016,0.0599,0.0271,0.0046,-0.0083,-0.0074,-0.0092,0.0037,0.0024,0.0032,-0.0148,-0.0144,0,0,0,0,0]}],[{"header":{"parameterUnit":"m.s-1","parameterCategory":2,"la1":30.2991,"la2":30.254,"lo1":-89.0895,"lo2":-89.0444,"dy":0.0017,"dx":0.0017,"nx":28,"ny":28,"refTime":"2025-11-13T09:00:00:Z","depth":"4","parameterNumber":2,"parameterNumberName":"U-component_of_CURRENTS"},"data":[0,0,0,0,0,0,0,0,0,0,0,0,0,0,0,0,0,0,0,0,0,0,0,0,0,0,0,0,0,0,0,0,0,0,0,0,0,0,0,0,0,0,0,0,0,0,0,0,0,0,0,0,0,0,0,0,0,0,0.0292,0.0292,0,0.0344,0.0345,0.0345,0.0448,0.045,0.0452,0.0454,0.0565,0.0566,0.0568,0,0,0,0,0,0,0,0,0,0,0,0,0,0.0243,0.0244,0.0292,0.0292,0.0293,0.0344,0.0345,0.0346,0.0448,0.045,0.0453,0.0455,0.0565,0.0566,0.0568,0,0,0,0,0,0,0,0,0,0,0,0,0,0.0277,0.0244,0.0292,0.035,0.0356,0.0344,0.0345,0.0346,0.0447,0.045,0.0453,0.0456,0.0565,0.0566,0.0568,0.0518,0,0,0.0573,0.0574,0,0,0,0,0,0,0,0,0.0275,0.0279,0.0341,0.0346,0.0353,0.0393,0.0369,0.0406,0.0447,0.0413,0.0454,0.0458,0.0511,0.0517,0.052,0.0523,0.0528,0.0573,0.0574,0.0575,0.0575,0,0,0,0,0,0,0,0.0273,0.0277,0.0313,0.0341,0.0348,0.0361,0.0369,0.0376,0.0446,0.0416,0.0424,0.0428,0.0515,0.0518,0.0523,0.053,0.0573,0.0574,0.0575,0.0576,0.0618,0.0618,0,0,0,0,0,0,0.0264,0.0275,0.0311,0.0314,0.032,0.0359,0.0369,0.0377,0.0444,0.0457,0.0425,0.0433,0.0513,0.0521,0.0527,0.0596,0.0575,0.0576,0.0577,0.0618,0.0618,0.0618,0,0,0,0,0,0,0.0263,0.0267,0.0309,0.0295,0.0302,0.0357,0.0365,0.0376,0.0432,0.0451,0.0466,0.0476,0.0516,0.0525,0.0578,0.0597,0.0577,0.0578,0.0618,0.0618,0.0618,0.0655,0,0,0,0,0,0,0.0261,0.0266,0.0287,0.0295,0.0302,0.034,0.0363,0.0375,0.0426,0.0438,0.0497,0.0508,0.0519,0.0576,0.058,0.0599,0.058,0.0618,0.0618,0.0618,0.0654,0.0656,0.0659,0,0,0,0,0,0.0259,0.0272,0.0287,0.0293,0.0323,0.0341,0.0347,0.0395,0.0426,0.0456,0.0496,0.0509,0.058,0.0577,0.0582,0.0602,0.0617,0.0618,0.0618,0.0652,0.0656,0.0659,0,0,0,0,0,0,0.0263,0.0283,0.0301,0.0321,0.0347,0.0359,0.0386,0.0415,0.0466,0.0492,0.0515,0.0527,0.0576,0.0578,0.0575,0.0612,0.0598,0.0599,0.0622,0.0625,0.0628,0.0638,0.0581,0,0,0,0,0,0.0268,0.0295,0.0306,0.0332,0.0339,0.0368,0.0388,0.0423,0.0457,0.0486,0.0528,0.0557,0.0567,0.0594,0.0607,0.063,0.0624,0.0643,0.0646,0.0648,0.0658,0.0648,0.0651,0.0619,0.0619,0.0619,0,0,0.0272,0.0295,0.0307,0.0337,0.0356,0.0376,0.039,0.0433,0.0473,0.0485,0.0566,0.0574,0.0574,0.0604,0.0625,0.0621,0.0655,0.0648,0.065,0.0659,0.0649,0.0652,0.0655,0.0619,0.0619,0.0619,0,0,0.0285,0.0315,0.0333,0.0356,0.0397,0.0413,0.0434,0.0473,0.0518,0.0572,0.0583,0.061,0.0648,0.0647,0.0646,0.0666,0.0666,0.0671,0.0702,0.0693,0.0695,0.0698,0.0701,0.0704,0.0676,0.0677,0.0677,0,0.0298,0.0322,0.0343,0.0367,0.0393,0.0433,0.0457,0.0493,0.0559,0.0593,0.0615,0.0655,0.0662,0.0671,0.0679,0.0675,0.0674,0.0693,0.0697,0.0699,0.0701,0.0704,0.0706,0.0678,0.0678,0.0678,0.0678,0,0.0307,0.0346,0.0359,0.0406,0.0434,0.047,0.0506,0.0568,0.0624,0.0653,0.0706,0.0707,0.0733,0.0726,0.0713,0.0722,0.0719,0.0699,0.0692,0.0707,0.0709,0.071,0.0681,0.068,0.068,0.0679,0,0,0.0301,0.0354,0.0369,0.0398,0.0465,0.0485,0.0557,0.0615,0.0668,0.0726,0.0777,0.0781,0.0791,0.0787,0.0769,0.0759,0.0767,0.0742,0.0741,0.0752,0.0762,0.0685,0.0679,0.075,0.075,0.0751,0.0761,0,0.0315,0.0359,0.0391,0.0452,0.0471,0.0538,0.0592,0.0659,0.0722,0.0785,0.0793,0.083,0.0809,0.0822,0.0809,0.0775,0.0773,0.0767,0.0741,0.0741,0.0675,0.0678,0.0752,0.0762,0.0763,0.0763,0.0763,0,0.0316,0.0353,0.0402,0.0477,0.0491,0.0548,0.0652,0.0708,0.0793,0.0839,0.0881,0.089,0.0896,0.087,0.0841,0.0842,0.0813,0.0783,0.0782,0.0699,0.0666,0.0741,0.0766,0.0766,0.0765,0.0765,0.0765,0,0.0295,0.0365,0.0412,0.0439,0.052,0.0584,0.0649,0.0742,0.0794,0.0887,0.0925,0.0938,0.0953,0.0919,0.0855,0.0864,0.0804,0.0808,0.0715,0.071,0.0762,0.076,0.0789,0.0789,0.0789,0.0789,0.0789,0,0.0293,0.0333,0.0419,0.0447,0.0519,0.0588,0.0682,0.0754,0.0845,0.0879,0.0953,0.0944,0.0966,0.0928,0.0873,0.0785,0.0821,0.0724,0.0703,0.0778,0.0777,0.0764,0.0761,0.0789,0.0789,0.0789,0.0789,0,0.0261,0.0313,0.037,0.0473,0.0512,0.0576,0.0702,0.075,0.0858,0.0906,0.0936,0.0973,0.0914,0.0896,0.0831,0.0805,0.0726,0.0681,0.0766,0.075,0.0649,0.0648,0.0626,0.0623,0.0621,0.0619,0.0617,0,0.0249,0.0274,0.0383,0.0425,0.0488,0.0588,0.0641,0.0753,0.0787,0.0871,0.0858,0.0867,0.086,0.073,0.0704,0.0637,0.061,0.0632,0.065,0.0648,0.0631,0.0634,0.0635,0.0613,0.0613,0.0612,0.0612,0,0.0217,0.0267,0.0313,0.04,0.0471,0.0527,0.0613,0.0626,0.072,0.0811,0.0781,0.0773,0.0705,0.0651,0.0612,0.0544,0.0659,0.0608,0.0614,0.0631,0.0633,0.0619,0.0623,0.0604,0.0605,0.0605,0.0606,0,0.0203,0.0222,0.0289,0.0364,0.0442,0.0465,0.0507,0.0538,0.0583,0.0682,0.0633,0.0629,0.0658,0.0594,0.0514,0.0487,0.0496,0.0536,0.0546,0.0555,0.0521,0.0513,0.043,0,0,0,0,0,0.0184,0.0194,0.0246,0.0313,0.0389,0.0432,0.0481,0.0511,0.0577,0.0542,0.061,0.0533,0.0496,0.0469,0.0419,0.0452,0.0475,0.0398,0.0522,0.0559,0.0568,0.0532,0,0,0,0,0,0,0.0164,0.0202,0.0217,0.0266,0.031,0.0361,0.039,0.0417,0.0403,0.0479,0.0427,0.0534,0.0451,0.0506,0.0416,0.0414,0.0493,0.0407,0.0407,0.0554,0.0562,0.057,0.0536,0,0,0,0,0]},{"header":{"parameterUnit":"m.s-1","parameterCategory":2,"la1":30.2991,"la2":30.254,"lo1":-89.0895,"lo2":-89.0444,"dy":0.0017,"dx":0.0017,"nx":28,"ny":28,"refTime":"2025-11-13T09:00:00:Z","depth":"4","parameterNumber":3,"parameterNumberName":"V-component_of_CURRENTS"},"data":[0,0,0,0,0,0,0,0,0,0,0,0,0,0,0,0,0,0,0,0,0,0,0,0,0,0,0,0,0,0,0,0,0,0,0,0,0,0,0,0,0,0,0,0,0,0,0,0,0,0,0,0,0,0,0,0,0,0,0.018,0.018,0,0.0129,0.0129,0.0128,0.0079,0.0078,0.0078,0.0077,-0.0036,-0.0039,-0.0041,0,0,0,0,0,0,0,0,0,0,0,0,0,0.0216,0.0215,0.018,0.018,0.0179,0.0129,0.0129,0.0128,0.0079,0.0078,0.0078,0.0077,-0.0035,-0.0038,-0.0041,0,0,0,0,0,0,0,0,0,0,0,0,0,0.0185,0.0215,0.018,0.0149,0.0146,0.013,0.0129,0.0128,0.0079,0.0078,0.0077,0.0077,-0.0034,-0.0038,-0.0042,-0.0048,0,0,-0.0053,-0.0055,0,0,0,0,0,0,0,0,0.0187,0.0184,0.0154,0.0151,0.0148,0.011,0.01,0.0066,0.0079,0.0103,0.0077,0.0076,0.0008,0.0001,-0.0007,-0.0054,-0.0058,-0.0054,-0.0056,-0.0057,-0.0058,0,0,0,0,0,0,0,0.0189,0.0186,0.0159,0.0154,0.015,0.0132,0.0126,0.0093,0.0059,0.0101,0.0098,0.0094,0.0006,-0.0003,-0.001,-0.006,-0.0053,-0.0057,-0.0059,-0.0061,-0.0163,-0.0164,0,0,0,0,0,0,0.0199,0.0188,0.0161,0.0158,0.0167,0.0132,0.0126,0.0122,0.0061,0.0051,0.0095,0.0092,0.0003,-0.0006,-0.0015,-0.0074,-0.0057,-0.0061,-0.0063,-0.0163,-0.0164,-0.0164,0,0,0,0,0,0,0.02,0.0198,0.0163,0.0172,0.0167,0.0132,0.0129,0.0122,0.0094,0.0057,0.0046,0.0072,0.0002,-0.0009,-0.0063,-0.0077,-0.0063,-0.0066,-0.0162,-0.0163,-0.0164,-0.0162,0,0,0,0,0,0,0.0202,0.0198,0.0195,0.0173,0.0167,0.0145,0.0129,0.0122,0.0095,0.009,0.0034,0.0024,0.0001,-0.0057,-0.0066,-0.0082,-0.0069,-0.0162,-0.0163,-0.0164,-0.0162,-0.0163,-0.0164,0,0,0,0,0,0.0203,0.0203,0.0195,0.0192,0.0165,0.0145,0.014,0.0112,0.0094,0.0083,0.0039,0.0024,-0.0069,-0.0061,-0.0072,-0.0089,-0.0161,-0.0162,-0.0163,-0.0161,-0.0163,-0.0164,0,0,0,0,0,0,0.0211,0.0198,0.0189,0.0183,0.0162,0.0137,0.0126,0.0104,0.0063,0.005,0.0012,-0.0002,-0.0053,-0.0069,-0.0059,-0.0119,-0.0115,-0.0118,-0.011,-0.0111,-0.0112,-0.0104,-0.0072,0,0,0,0,0,0.0215,0.0215,0.0193,0.0188,0.0178,0.0148,0.0135,0.0113,0.0078,0.0059,0.0013,-0.0028,-0.0061,-0.0086,-0.0121,-0.0157,-0.0161,-0.0172,-0.0173,-0.0174,-0.0174,-0.0191,-0.0193,-0.0168,-0.0168,-0.0168,0,0,0.0216,0.021,0.0208,0.019,0.0172,0.0155,0.0137,0.0113,0.0089,0.0053,-0.0005,-0.004,-0.0073,-0.0114,-0.0137,-0.0133,-0.0183,-0.0175,-0.0176,-0.0176,-0.0192,-0.0194,-0.0197,-0.0168,-0.0168,-0.0168,0,0,0.0219,0.0213,0.0209,0.0195,0.017,0.0153,0.0143,0.0101,0.0073,0.0022,-0.0009,-0.0053,-0.0114,-0.0137,-0.0154,-0.0181,-0.019,-0.0192,-0.0192,-0.0208,-0.021,-0.0212,-0.0217,-0.0219,-0.019,-0.019,-0.019,0,0.022,0.0213,0.0203,0.0193,0.0182,0.0151,0.0136,0.0107,0.0048,0.0021,0.0001,-0.009,-0.0121,-0.0159,-0.0168,-0.0184,-0.0189,-0.0184,-0.0209,-0.0211,-0.0213,-0.0217,-0.022,-0.019,-0.019,-0.019,-0.019,0,0.0215,0.0208,0.0204,0.0186,0.0172,0.0155,0.0122,0.0084,0.0043,0.001,-0.0054,-0.01,-0.0148,-0.0165,-0.0178,-0.0207,-0.0205,-0.0209,-0.0203,-0.0215,-0.0219,-0.0222,-0.019,-0.019,-0.019,-0.019,0,0,0.0221,0.0205,0.0204,0.0196,0.0167,0.0155,0.0117,0.0075,0.0047,-0.0019,-0.0061,-0.0122,-0.0149,-0.0169,-0.0193,-0.0211,-0.0229,-0.0215,-0.0216,-0.0215,-0.0257,-0.0243,-0.0244,-0.0238,-0.0238,-0.0239,-0.0252,0,0.0217,0.0209,0.0199,0.0182,0.0171,0.014,0.0114,0.0072,0.0026,-0.0025,-0.0077,-0.0121,-0.0147,-0.0168,-0.0194,-0.0227,-0.0237,-0.0225,-0.025,-0.0251,-0.0233,-0.0247,-0.0241,-0.0254,-0.0255,-0.0255,-0.0256,0,0.021,0.0209,0.02,0.0182,0.0174,0.016,0.0118,0.0088,0.0024,-0.0013,-0.0069,-0.0109,-0.0159,-0.017,-0.0229,-0.0221,-0.0236,-0.0256,-0.0257,-0.0245,-0.0241,-0.0242,-0.026,-0.026,-0.026,-0.0259,-0.0259,0,0.0223,0.0206,0.0204,0.0199,0.0175,0.0159,0.0138,0.0086,0.0069,-0.0003,-0.002,-0.0097,-0.0126,-0.0173,-0.0219,-0.0225,-0.0271,-0.0283,-0.028,-0.0279,-0.0288,-0.0286,-0.0307,-0.0307,-0.0307,-0.0307,-0.0307,0,0.022,0.0217,0.0211,0.0212,0.0203,0.0177,0.0162,0.0121,0.0085,0.007,-0.0004,-0.0036,-0.0127,-0.0167,-0.0213,-0.0254,-0.0264,-0.0282,-0.0285,-0.0286,-0.0284,-0.0289,-0.0287,-0.0307,-0.0307,-0.0307,-0.0307,0,0.0224,0.0223,0.0224,0.0214,0.021,0.0202,0.0195,0.0184,0.0147,0.0125,0.011,0.0016,-0.0059,-0.0126,-0.0204,-0.0232,-0.028,-0.0281,-0.0267,-0.0267,-0.028,-0.0277,-0.0298,-0.0298,-0.0297,-0.0297,-0.0297,0,0.0224,0.0227,0.0238,0.0244,0.0239,0.0234,0.0235,0.021,0.0207,0.0153,0.0144,0.0067,0.0001,-0.0101,-0.0183,-0.0261,-0.0264,-0.0274,-0.0295,-0.028,-0.028,-0.0278,-0.0276,-0.0296,-0.0296,-0.0296,-0.0296,0,0.0221,0.0231,0.0238,0.0262,0.027,0.0279,0.0277,0.028,0.0251,0.0243,0.0169,0.009,0.0008,-0.0109,-0.0153,-0.0212,-0.0272,-0.0271,-0.0273,-0.0293,-0.0279,-0.0279,-0.0277,-0.0295,-0.0295,-0.0296,-0.0296,0,0.0224,0.0227,0.0249,0.0263,0.0292,0.0299,0.0295,0.0284,0.0279,0.0231,0.0202,0.0093,0.0026,-0.0082,-0.0134,-0.0185,-0.0209,-0.0217,-0.0222,-0.0224,-0.0203,-0.0174,-0.0161,0,0,0,0,0,0.0218,0.0221,0.0241,0.0257,0.0298,0.0311,0.0317,0.0312,0.03,0.0261,0.0234,0.0152,0.0028,-0.0049,-0.0099,-0.0134,-0.0214,-0.0192,-0.0225,-0.029,-0.0291,-0.0278,0,0,0,0,0,0,0.0208,0.023,0.0235,0.0265,0.0282,0.0313,0.0318,0.0302,0.0276,0.0252,0.0177,0.0159,0.0029,0.0063,-0.0095,-0.0114,-0.0137,-0.0247,-0.0247,-0.0289,-0.029,-0.0291,-0.0278,0,0,0,0,0]}]]